Location: Montbazon
(47.2835°N, 0.6999°E)
Time: 06:26:31
(UTC+00:00)

NOSS 3-1 (C) - Pass Details

Date: 08 November 2025
Orbit: 619 x 1583 km, 63.4° (Epoch: 01 December)

Event Time Altitude Azimuth Distance (km) Brightness Sun altitude
Exits shadow 04:27:29 53° 197° (SSW) 870 3.1 -24.5°
Maximum altitude 04:28:35 76° 127° (SE) 756 2.9 -24.3°
Drops below altitude 10° 04:34:10 10° 42° (NE) 2,495 6.2 -23.4°
Sets 04:36:57 0° 41° (NE) 3,585 7.1 -22.9°
